Location: Deurze
(52.9838°N, 6.6090°E)
Time: 20:24:18
(UTC+00:00)

Daily predictions for brighter satellites

Satellite Brightness Start Highest point End
(mag) Time Altitude Azimuth Time Altitude Azimuth Time Altitude Azimuth
SMAP 3.2 16:13:50 10° SE 16:18:19 51° ENE 16:22:51 10° N
Cosmos 1066 Rocket 4.4 16:13:29 10° SSW 16:19:06 86° WNW 16:24:55 10° NNE
Cosmos 1464 Rocket 4.1 16:13:59 10° N 16:20:25 79° ENE 16:26:47 10° SSE
CZ-2D R/B 2.9 16:17:25 10° SSE 16:20:51 76° ENE 16:24:18 10° N
Cosmos 1908 4.2 16:17:50 10° NNW 16:21:09 45° W 16:24:26 10° SSW
SJ-6F 4.4 16:17:42 10° SSE 16:21:36 61° ENE 16:25:36 10° N
Cosmos 2034 Rocket 4.0 16:16:42 10° N 16:22:48 59° ENE 16:28:53 10° SSE
Cosmos 1486 Rocket 4.0 16:18:57 10° NNW 16:24:18 72° ENE 16:29:37 10° SSE
IGS 5A 4.1 16:21:35 10° SE 16:25:11 32° ENE 16:28:47 10° N
ARIANE 5 R/B 3.0 16:20:47 10° S 16:26:00 70° WSW 16:31:14 10° NNW
Cosmos 1470 Rocket 3.5 16:22:00 10° N 16:26:26 81° ENE 16:30:47 10° SSE
USA 290 2.2 16:23:19 10° NNW 16:26:34 88° ENE 16:29:49 10° SSE
Cosmos 1842 3.6 16:23:06 10° SSW 16:26:34 57° WNW 16:30:04 10° N
Cosmos 1470 4.1 16:23:27 10° NNW 16:26:51 40° W 16:30:13 10° SSW
Cosmos 2278 Rocket 3.0 16:22:18 10° NNW 16:27:21 31° NE 16:32:21 10° ESE
Cosmos 1455 3.2 16:25:38 10° NNE 16:28:00 18° ENE 16:30:21 10° ESE
NOSS 3-3 (A) 4.0 16:26:38 10° SW 16:32:11 75° NW 16:38:54 10° NE
Cosmos 1777 Rocket 4.1 16:27:17 10° NNW 16:32:25 56° ENE 16:37:31 10° SE
Cosmos 1503 Rocket 4.0 16:29:15 10° NNW 16:34:23 59° ENE 16:39:29 10° SE
Meteor 2-10 Rocket 3.7 16:29:07 10° N 16:34:50 76° ENE 16:40:38 10° SSE
Cosmos 1943 Rocket 3.0 16:32:04 10° NNW 16:37:01 29° NE 16:41:55 10° E
Cosmos 724 4.4 16:31:28 10° SW 16:37:20 85° NW 16:43:22 10° NE
Cosmos 1300 2.3 16:35:46 10° N 16:39:09 84° ENE 16:42:30 10° SSE
In-Cosmos 22 4.3 16:34:48 10° S 16:40:25 65° E 16:46:09 10° NNE
Cosmos 1933 Rocket 3.6 16:36:37 10° N 16:41:00 59° ENE 16:45:21 10° SSE
Cosmos 1707 3.7 16:38:21 10° SSW 16:41:37 41° WNW 16:44:56 10° N
Cosmos 2219 Rocket 2.6 16:36:39 10° S 16:41:53 43° ESE 16:47:09 10° NE
Cosmos 1869 Rocket 3.9 16:38:56 10° N 16:43:09 42° ENE 16:47:21 10° SE
Meteor 1-13 Rocket 4.5 16:37:39 10° S 16:43:22 54° E 16:49:09 10° NNE
ARIANE 6 FM1 Upper Stage 2.7 16:39:10 10° NW 16:43:28 80° NE 16:47:49 10° SE
Cosmos 292 Rocket 3.8 16:42:07 10° NNW 16:46:52 60° ENE 16:51:33 10° SE
SL-14 R/B 3.6 16:43:34 10° SSE 16:47:06 40° E 16:50:40 10° NNE
ADEOS Rocket 4.1 16:42:11 10° S 16:47:36 44° W 16:52:51 10° NNW
Spot 4 Rocket 4.0 16:43:00 10° SSE 16:48:07 76° ENE 16:53:16 10° NNW
ATLAS CENTAUR R/B 1.5 16:44:46 10° NW 16:48:49 76° SW 16:52:55 10° SE
Cosmos 405 Rocket 2.7 16:46:28 10° NNW 16:50:04 76° W 16:53:40 10° S
Cosmos 1992 Rocket 4.0 16:45:11 10° SSW 16:50:23 86° WNW 16:55:38 10° NNE
Cosmos 1461 4.4 16:47:42 10° W 16:50:45 23° NNW 16:53:53 10° NNE
Meteor 1-22 Rocket 4.1 16:48:39 10° NNW 16:54:07 83° ENE 16:59:24 10° SSE
Cosmos 2333 4.2 16:50:23 10° SSW 16:55:56 68° ESE 17:01:33 10° NE
Cosmos 1758 3.1 16:53:22 10° N 16:57:14 74° ENE 17:01:05 10° SSE
Cosmos 1328 Rocket 4.4 16:54:34 10° SSW 16:58:43 50° WNW 17:02:56 10° N
Meteor 1-31 Rocket 3.5 16:57:40 10° ESE 17:00:40 26° ENE 17:03:42 10° N
USA 306 1.7 17:00:59 10° SW 17:02:55 49° SSE 17:04:11 23° E
PSLV R/B 3.4 16:59:10 10° SSE 17:03:13 89° WSW 17:07:20 10° NNW
SL-16 R/B 3.7 16:57:29 10° N 17:03:19 43° WNW 17:09:10 10° SW
Cosmos 1980 Rocket 4.0 16:58:59 10° W 17:03:26 23° NNW 17:07:54 10° NNE
Lacrosse 5 2.4 16:58:38 10° WNW 17:03:41 63° SW 17:08:43 10° SE
Lacrosse 5 rocket 3.1 17:00:38 10° WNW 17:04:19 33° SW 17:08:01 10° SSE
Cosmos 2084 Rocket 3.2 17:01:13 10° NW 17:05:20 70° NE 17:09:22 10° ESE
COSMO-SKYMED 1 3.4 17:02:23 10° NE 17:06:07 29° E 17:09:56 10° SSE
Cosmos 2279 Rocket 4.1 17:05:11 10° N 17:11:16 52° ENE 17:17:16 10° SSE
Cosmos 1898 Rocket 4.3 17:09:04 10° NNW 17:13:45 31° NE 17:17:39 14° ESE
Cosmos 1515 Rocket 3.8 17:11:14 10° SSW 17:15:32 72° WNW 17:19:53 10° N
Cosmos 2333 Rocket 2.4 17:10:28 10° SW 17:16:05 71° NW 17:21:47 10° NNE
COSMOS 2428 3.3 17:12:12 10° S 17:17:21 36° ESE 17:20:55 18° NE
Cosmos 1174 4.0 17:15:02 10° NNW 17:18:12 38° NE 17:20:11 21° E
Cosmos 1763 Rocket 4.3 17:14:15 10° SSE 17:18:43 30° ESE 17:21:11 20° ENE
Cosmos 2228 Rocket 4.1 17:16:04 10° SE 17:19:48 26° E 17:21:24 21° NE
Landsat 7 3.8 17:17:45 10° SSE 17:22:22 61° ENE 17:27:01 10° N
Cosmos 2344 3.9 17:15:56 10° S 17:22:56 41° ESE 17:27:37 19° ENE
MINOTAUR IV R/B 4.5 17:18:51 10° NNW 17:23:21 71° ENE 17:27:50 10° SE
ASTEX 1 4.4 17:19:42 10° SSW 17:24:24 49° W 17:29:08 10° NNW
Cosmos 2369 Rocket 3.6 17:23:34 10° NNW 17:27:34 19° NNE 17:28:44 18° NE
ACS3 Solar Sail 1.9 17:21:32 10° SE 17:27:45 56° ENE 17:33:59 10° N
Meteor 1-12 Rocket 4.3 17:22:25 10° NNW 17:28:08 88° WSW 17:33:53 10° S
USA 215 3.4 17:24:40 20° ENE 17:29:24 66° N 17:35:52 10° W
Meteor 1-16 Rocket 4.0 17:25:28 10° N 17:30:50 67° ENE 17:36:20 10° SSE
RESURS DK-1 2.8 17:30:01 10° NNW 17:33:49 37° NE 17:34:50 32° E
Cosmos 2084 4.1 17:31:48 10° WSW 17:35:47 45° NNW 17:37:57 23° NNE
Cosmos 1733 Rocket 3.0 17:33:45 10° N 17:38:04 56° ENE 17:42:23 10° SSE
Cosmos 1634 Rocket 4.2 17:32:32 10° NNW 17:38:54 79° W 17:45:13 10° S
Cosmos 540 Rocket 4.1 17:34:52 10° SSE 17:39:27 34° ESE 17:40:48 29° ENE
YAOGAN 1 2.5 17:36:08 10° SSE 17:40:20 58° ENE 17:44:33 10° N
Cosmos 1953 2.1 17:37:05 10° N 17:40:47 55° ENE 17:44:25 10° SSE
Cosmos 2322 Rocket 3.1 17:35:28 10° WSW 17:40:50 45° NW 17:45:56 12° NNE
Resurs 1-3 3.9 17:38:52 10° SE 17:42:54 40° ENE 17:46:57 10° N
Resurs 01 Rocket 3.6 17:47:40 14° NNE 17:47:40 14° NNE 17:48:28 10° N
Cosmos 2360 Rocket 3.0 17:41:53 10° SW 17:47:21 48° NW 17:52:16 13° NNE
SL-16 R/B 3.7 17:42:24 10° WSW 17:47:26 31° NW 17:52:21 11° NNE
Meteor 1-21 4.1 17:43:11 10° S 17:48:46 76° E 17:54:25 10° NNE
Cosmos 2142 Rocket 4.4 17:43:54 10° N 17:50:07 77° E 17:56:22 10° SSE
BlueWalker 3 1.7 17:49:54 10° W 17:53:35 87° N 17:54:13 59° E
SKYMED 2 3.4 17:50:57 16° NNE 17:54:23 79° ESE 17:58:43 10° SSW
CZ-4B R/B 3.5 17:51:36 10° SSE 17:55:16 86° WSW 17:58:53 10° NNW
ATLAS 2AS CENTAUR R/B 3.0 17:49:19 10° NW 17:56:01 49° NNE 17:58:45 32° E
Cosmos 990 Rocket 4.2 17:54:40 10° NNW 17:59:54 72° WSW 18:05:06 10° SSE
CZ-2C R/B 3.8 18:02:20 27° N 18:02:20 27° N 18:04:01 10° N
Cosmos 1455 3.5 17:58:34 10° NNW 18:01:31 34° W 18:04:28 10° SSW
Cosmos 2237 Rocket 2.7 18:01:31 10° S 18:06:39 37° ESE 18:06:39 37° ESE
Cosmos 372 Rocket 3.8 18:03:59 10° NNW 18:09:04 64° ENE 18:10:57 37° SE
DNEPR-1 R/B 3.6 18:05:41 10° NW 18:10:51 87° NE 18:12:16 45° SE
Cosmos 2278 Rocket 2.4 18:06:16 10° NW 18:11:56 72° WSW 18:17:33 10° SSE
NOAA 6 4.3 18:07:08 10° S 18:12:13 69° WSW 18:17:21 10° NNW
Cosmos 1937 Rocket 3.5 18:07:17 10° NNW 18:12:20 54° ENE 18:12:59 51° E
Aureole 1 Rocket 4.3 18:04:47 10° NNW 18:12:35 82° ENE 18:19:56 10° SSE
Okean 3 3.2 18:11:10 10° S 18:15:15 85° E 18:15:57 60° NNE
NOSS 0 Rocket 3.9 18:11:06 10° SSW 18:17:08 59° ESE 18:18:52 44° ENE
BREEZE-M DEB (TANK) 3.2 18:17:02 10° SW 18:18:20 26° SSW 18:18:20 26° SSW
Cosmos 1943 Rocket 2.3 18:15:40 10° NNW 18:21:22 77° WSW 18:26:33 12° SSE
SPOT 1/Viking Rocket 3.4 18:16:43 10° SSE 18:21:54 89° ENE 18:27:06 10° NNW
Cosmos 2219 Rocket 3.1 18:20:29 10° WSW 18:25:50 45° NW 18:29:16 21° NNE
CZ-4B R/B 4.3 18:28:58 28° NNE 18:28:58 28° NNE 18:31:50 10° N
Cosmos 2322 3.9 18:23:40 10° SW 18:29:23 70° NW 18:32:04 32° NNE
Meteor 1-31 Rocket 4.4 18:30:56 10° SSW 18:34:08 31° W 18:37:22 10° NNW
EO 1 Delta rocket 4.2 18:30:39 10° N 18:35:45 66° WNW 18:40:20 10° SSW
Cosmos 1707 Rocket 3.8 18:31:25 10° SSW 18:35:50 68° WNW 18:37:00 46° NNW
ADEOS 3.4 18:36:47 70° NE 18:36:47 70° NE 18:41:49 10° NNW
Nadezhda 4 Rocket 3.8 18:34:37 10° S 18:40:44 80° E 18:46:32 12° NNE
COSMO-SKYMED 1 3.8 18:39:36 18° N 18:42:24 39° WNW 18:46:27 10° SW
Lacrosse 5 4.5 18:42:34 10° W 18:45:52 17° SW 18:49:10 10° SSW
Cosmos 1818 3.7 18:44:07 10° NW 18:49:01 63° N 18:49:01 63° N
Cosmos 1980 Rocket 4.4 18:47:10 10° NNW 18:49:42 13° N 18:50:49 12° N
Cosmos 1862 Rocket 4.3 18:48:41 10° SSW 18:52:56 51° WNW 18:53:12 51° WNW
Cosmos 1980 3.7 18:49:51 10° SSW 18:54:52 70° S 18:54:52 70° S
Cosmos 1898 Rocket 4.0 18:50:55 10° NNW 18:56:06 58° WSW 18:57:58 37° S
Cosmos 2228 Rocket 4.1 18:53:21 10° SW 18:57:41 45° WNW 18:58:53 36° NNW
Cosmos 1763 Rocket 4.1 18:55:07 10° SW 19:00:13 53° WNW 19:01:10 46° NNW
Cosmos 468 Rocket 4.2 18:55:39 10° SSW 19:00:17 68° WSW 19:00:17 68° WSW
Cosmos 2333 Rocket 4.1 18:57:02 10° W 19:01:25 22° NNW 19:03:48 17° N
COSMOS 2428 3.3 18:55:52 10° SW 19:01:26 52° NW 19:02:56 41° N
RESURS DK-1 4.2 19:07:43 10° NW 19:10:20 28° W 19:10:20 28° W
ACS3 Solar Sail 3.4 19:05:50 10° SSW 19:11:36 35° W 19:17:25 10° NNW
USA 215 3.2 19:12:00 70° NNE 19:12:09 70° NNE 19:18:40 10° WNW
Cosmos 2369 Rocket 3.3 19:07:16 10° NNW 19:10:31 34° N 19:10:31 34° N
Cosmos 540 Rocket 4.4 19:15:54 10° SW 19:20:35 46° WNW 19:20:35 46° WNW
Resurs 01 Rocket 4.3 19:25:06 13° NNW 19:25:06 13° NNW 19:25:31 10° NNW
Cosmos 2322 Rocket 4.3 19:22:46 10° WNW 19:26:22 17° NNW 19:27:44 16° N
Cosmos 2360 Rocket 4.3 19:29:00 10° WNW 19:32:47 18° NNW 19:34:01 17° N
SL-16 R/B 4.5 19:30:26 10° NW 19:33:26 14° NNW 19:34:12 14° N
Cosmos 2344 3.7 19:29:41 10° WSW 19:36:57 62° NNW 19:37:38 60° N
ATLAS 2AS CENTAUR R/B 3.1 19:40:29 10° NW 19:46:11 58° W 19:46:11 58° W
Cosmos 2237 Rocket 3.5 19:45:03 10° SW 19:48:31 35° WSW 19:48:31 35° WSW
Cosmos 2219 Rocket 4.5 20:07:42 10° WNW 20:10:59 17° NNW 20:10:59 17° NNW
